Powrót do katalogu

NAVSTAR 60

USA 196

AktywnyNawigacjaHEO
NORAD 32260·PAYLOAD·🇺🇸 United States

Wystrzelony Oct 17, 2007 z Cape Canaveral Space Force Station

Loading…

Następne Przeloty (najbliższe 24 godziny)

TLE

ŚwieżeSource: CelesTrak SupGP

Epoka: Sep 16, 2026, 16:44 UTC

1 32260C 07047A   26259.69756944  .00000000  00000+0  00000+0 0  2592
2 32260  54.1676  76.2962 0168981  89.5375  77.2564  2.00551889    16

Śledź NAVSTAR 60 w czasie rzeczywistym z AllMySat

Download on the App Store